User: anonymous   Login
Location: Unspecified
(0.0000°N, 0.0000°E)
Time: 11:16:31
(UTC+00:00)
Language:

SIRIUS-2 - Orbit

View from above orbital plane
View from above orbital plane
View from above satellite
View from above satellite

Ground track
Ground track

The orbit data is extracted from the following two-line orbital elements,

1 26483U 00051A   18018.89593027 -.00000008  00000-0  00000+0 0  9998
2 26483  64.8109 101.8512 0145570 257.4886 110.0732  1.64982288 67154
Epoch (UTC): 18 January 2018 21:30:08
Eccentricity: 0.0145570
inclination: 64.8109°
perigee height: 23435 km
apogee height: 24315 km
right ascension of ascending node: 101.8512°
argument of perigee: 257.4886°
revolutions per day: 1.64982288
mean anomaly at epoch: 110.0732°
orbit number at epoch: 6715

The dashed part of the orbit path shows where the satellite is in the earth's shadow,  

DLR